Regional Weather Roundup
Issued by NWS

Home | Current Version | Previous Version | Graphics & Text | Print | Product List | Glossary On
Versions: 1 2 3 4 5 6 7 8 9 10 11 12 13 14 15 16 17 18 19 20 21 22 23 24 25 26 27 28 29 30 31 32 33 34 35 36 37 38 39 40 41 42 43 44 45 46 47 48 49 50
000
ASUS43 KLMK 300910
RWRKY
KENTUCKY REGIONAL WEATHER ROUNDUP
NATIONAL WEATHER SERVICE LOUISVILLE KY
500 AM EDT FRI SEP 30 2016

NOTE "FAIR" INDICATES FEW OR NO CLOUDS BELOW 12,000 FEET
WITH NO SIGNIFICANT WEATHER AND/OR OBSTRUCTIONS TO VISIBILITY.

KYZ001>023-026-027-061>063-070>075-301000-
WESTERN AND SOUTH CENTRAL KENTUCKY

CITY           SKY/WX    TMP DP  RH WIND       PRES   REMARKS
PADUCAH        CLOUDY    60  56  86 NW3       30.06F
HENDERSON      PTCLDY    52  48  87 W7        30.02F
OWENSBORO      NOT AVBL
HOPKINSVILLE   CLOUDY    56  56  97 NW7       30.05S
BOWLING GREEN  FOG       51  50  96 SW3       30.04S VSB 3/4
GLASGOW        FOG      N/A N/A N/A CALM      30.04R VSB 1/4
$$

KYZ024-025-028>034-038-045-046-053-301000-
NORTH CENTRAL KENTUCKY

CITY           SKY/WX    TMP DP  RH WIND       PRES   REMARKS
LOUISVILLE/SDF CLOUDY    57  53  86 S7        30.01S
LOUISVILLE/LOU CLOUDY    56  54  93 CALM      30.02S FOG
FORT KNOX      RAIN      53  53  99 S6        30.01R
$$

KYZ035>037-039>044-047>052-055>060-089>105-301000-
NORTHEAST KENTUCKY

CITY           SKY/WX    TMP DP  RH WIND       PRES   REMARKS
LEXINGTON      CLOUDY    55  53  93 S3        30.04R FOG
COVINGTON      CLOUDY    57  55  94 SE5       30.02S
FRANKFORT      CLOUDY    56  53  90 S3        30.03R FOG
$$

KYZ054-064>069-076>088-106>120-301000-
SOUTHEAST KENTUCKY

CITY           SKY/WX    TMP DP  RH WIND       PRES   REMARKS
JACKSON        FOG       53  52  96 CALM      30.03S VSB 1/4
LONDON         CLOUDY    50  48  93 CALM      30.04S FOG
SOMERSET       CLOUDY    48  48 100 CALM      30.06S
MIDDLESBORO    PTCLDY    50  49  97 CALM      30.04S
MONTICELLO     CLOUDY    50  50 100 W10       30.07S FOG
$$




USA.gov is the U.S. government's official web portal to all federal, state and local government web resources and services.